ROMMA est une association bénévole à but non lucratif. Votre soutien est indispensable : ADHERER à ROMMA ou FAIRE un DON

Lans-en-Vercors - (38, Isère)

Vercors (990 m)   Longitude: 5° 33' 59'' E   Latitude: 45° 6' 3'' N Station partenaire n°80
 

Détail journalier du     <<     >>

Température Humidité Vent Dir Rafale Dir. rafale Ensol.
Heure (°C) (%) (km/h) (km/h) (min)
01:00 -3.7848NNE31NNO0
02:00 -4.0876N19N0
03:00 -4.0847NNE23N0
04:00 -4.2837N26NNE0
05:00 -4.18313N35NNE0
06:00 -4.2838NNE23NE0
07:00 -4.5862NNE16NNE0
08:00 -4.7906NNE19NNE0
09:00 -4.6918NNE19NE0
10:00 -4.1907NNE18NNE0
11:00 -3.0867N19NNE0
12:00 -3.4856NNE18NNE0
13:00 -3.4829NNE21N0
14:00 -3.5858N29NNE0
15:00 -3.6859NNE23N0
16:00 -3.7839N21N0
17:00 -3.8839NNE23N0
18:00 -4.2843N15NNE0
19:00 -4.0844NNE19NNE0
20:00 -3.78312NNE31NNE0
21:00 -3.8856NNE23N0
22:00 -4.1872N13NNE0
23:00 -4.0856NNE16NNE0
minuit -4.2885NNE15NNE0

Graphique du 10-01-2019

 

Serveur OMMA